TimeCDT,TemperatureF,Dew PointF,Humidity,Sea Level PressureIn,VisibilityMPH,Wind Direction,Wind SpeedMPH,Gust SpeedMPH,PrecipitationIn,Events,Conditions,WindDirDegrees,DateUTC
12:33 AM,69.8,66.2,88,30.08,10.0,SSW,5.8,-,N/A,Thunderstorm,Thunderstorm,200,2013-04-28 05:33:00
12:53 AM,69.1,66.0,90,30.07,10.0,South,5.8,-,N/A,,Overcast,180,2013-04-28 05:53:00
1:48 AM,68.0,66.2,94,30.06,8.0,South,4.6,-,0.00,Rain-Thunderstorm,Light Thunderstorms and Rain,170,2013-04-28 06:48:00
1:53 AM,68.0,66.0,93,30.06,8.0,South,5.8,-,0.00,Rain-Thunderstorm,Light Thunderstorms and Rain,190,2013-04-28 06:53:00
2:18 AM,68.0,66.2,94,30.06,7.0,South,8.1,-,0.00,Rain,Light Rain,180,2013-04-28 07:18:00
2:53 AM,68.0,66.0,93,30.05,7.0,South,6.9,-,0.01,Rain,Light Rain,180,2013-04-28 07:53:00
3:53 AM,68.0,66.0,93,30.03,6.0,South,8.1,-,0.00,Rain,Light Rain,180,2013-04-28 08:53:00
4:20 AM,68.0,66.2,94,30.02,5.0,South,6.9,-,N/A,,Scattered Clouds,170,2013-04-28 09:20:00
4:43 AM,69.8,66.2,88,30.02,5.0,South,6.9,-,0.00,Rain,Light Rain,170,2013-04-28 09:43:00
4:53 AM,69.1,66.9,93,30.00,5.0,SSE,8.1,-,0.01,Rain,Light Rain,160,2013-04-28 09:53:00
6:53 AM,69.1,66.9,93,30.03,4.0,SSE,5.8,-,N/A,,Mostly Cloudy,150,2013-04-28 11:53:00
7:03 AM,69.8,68.0,94,30.04,4.0,Calm,Calm,-,N/A,,Partly Cloudy,0,2013-04-28 12:03:00
7:29 AM,69.8,68.0,94,30.04,5.0,Calm,Calm,-,N/A,,Mostly Cloudy,0,2013-04-28 12:29:00
8:20 AM,71.6,68.0,88,30.04,7.0,South,3.5,-,N/A,,Mostly Cloudy,180,2013-04-28 13:20:00
8:35 AM,71.6,68.0,88,30.03,7.0,South,4.6,-,N/A,,Scattered Clouds,170,2013-04-28 13:35:00
8:53 AM,71.1,68.0,90,30.02,8.0,WSW,5.8,-,N/A,Thunderstorm,Scattered Clouds,240,2013-04-28 13:53:00
9:03 AM,71.6,68.0,88,30.02,9.0,South,8.1,-,N/A,Thunderstorm,Scattered Clouds,190,2013-04-28 14:03:00
9:40 AM,71.6,68.0,88,30.03,10.0,SSW,5.8,-,N/A,Thunderstorm,Mostly Cloudy,210,2013-04-28 14:40:00
9:51 AM,73.4,68.0,83,30.03,10.0,South,6.9,-,N/A,Thunderstorm,Mostly Cloudy,180,2013-04-28 14:51:00
9:53 AM,73.0,68.0,84,30.02,10.0,South,9.2,-,N/A,Thunderstorm,Mostly Cloudy,190,2013-04-28 14:53:00
10:32 AM,66.2,64.4,94,30.05,3.0,West,10.4,16.1,0.06,Rain-Thunderstorm,Thunderstorms and Rain,260,2013-04-28 15:32:00
10:35 AM,66.2,64.4,94,30.05,2.5,NW,11.5,16.1,0.10,Rain-Thunderstorm,Thunderstorms and Rain,310,2013-04-28 15:35:00
10:41 AM,64.4,62.6,94,30.04,0.8,North,9.2,-,0.28,Rain-Thunderstorm,Heavy Thunderstorms and Rain,350,2013-04-28 15:41:00
10:53 AM,64.9,64.0,97,30.04,0.5,NNW,6.9,-,0.56,Fog-Rain-Thunderstorm,Heavy Thunderstorms and Rain,340,2013-04-28 15:53:00
10:58 AM,64.4,62.6,94,30.05,1.0,North,6.9,-,0.00,Rain-Thunderstorm,Light Thunderstorms and Rain,10,2013-04-28 15:58:00
11:00 AM,64.4,62.6,94,30.05,4.0,North,6.9,-,0.01,Rain-Thunderstorm,Light Thunderstorms and Rain,360,2013-04-28 16:00:00
11:21 AM,64.4,62.6,94,30.05,1.8,North,16.1,21.9,0.19,Rain-Thunderstorm,Heavy Thunderstorms and Rain,360,2013-04-28 16:21:00
11:33 AM,64.4,62.6,94,30.05,3.0,North,12.7,20.7,0.27,Rain-Thunderstorm,Thunderstorms and Rain,350,2013-04-28 16:33:00
11:40 AM,64.4,62.6,94,30.07,1.8,NW,15.0,-,0.43,Rain-Thunderstorm,Heavy Thunderstorms and Rain,320,2013-04-28 16:40:00
11:53 AM,64.0,62.1,93,30.05,1.0,WNW,5.8,19.6,0.58,Rain-Thunderstorm,Heavy Thunderstorms and Rain,290,2013-04-28 16:53:00
11:55 AM,64.4,60.8,88,30.05,0.8,WNW,4.6,18.4,0.04,Rain-Thunderstorm,Heavy Thunderstorms and Rain,290,2013-04-28 16:55:00
12:09 PM,64.4,62.6,94,30.04,2.0,SSE,11.5,16.1,0.14,Rain-Thunderstorm,Thunderstorms and Rain,160,2013-04-28 17:09:00
12:17 PM,64.4,62.6,94,30.02,4.0,SSE,10.4,-,0.16,Rain-Thunderstorm,Thunderstorms and Rain,150,2013-04-28 17:17:00
12:53 PM,66.0,63.0,90,30.02,10.0,SSE,8.1,-,0.19,Thunderstorm,Mostly Cloudy,150,2013-04-28 17:53:00
1:03 PM,66.2,62.6,88,30.03,10.0,SSE,5.8,-,N/A,,Mostly Cloudy,160,2013-04-28 18:03:00
1:53 PM,69.1,64.0,84,30.01,10.0,SSE,9.2,-,0.01,,Overcast,150,2013-04-28 18:53:00
2:53 PM,69.1,64.9,87,30.00,10.0,SSE,8.1,-,0.00,,Mostly Cloudy,160,2013-04-28 19:53:00
3:33 PM,68.0,64.4,88,29.99,10.0,South,6.9,-,0.00,Rain,Light Rain,180,2013-04-28 20:33:00
3:45 PM,68.0,64.4,88,29.99,10.0,South,5.8,-,0.00,,Overcast,190,2013-04-28 20:45:00
3:53 PM,68.0,64.9,90,29.99,10.0,South,5.8,-,0.00,,Mostly Cloudy,190,2013-04-28 20:53:00
4:04 PM,68.0,64.4,88,29.99,10.0,Calm,Calm,-,N/A,,Mostly Cloudy,0,2013-04-28 21:04:00
4:11 PM,68.0,64.4,88,29.99,10.0,Calm,Calm,-,N/A,,Mostly Cloudy,0,2013-04-28 21:11:00
4:53 PM,68.0,64.9,90,29.97,10.0,Calm,Calm,-,0.01,,Overcast,0,2013-04-28 21:53:00
5:28 PM,69.8,64.4,83,29.98,10.0,Calm,Calm,-,N/A,,Overcast,0,2013-04-28 22:28:00
5:53 PM,68.0,66.0,93,29.97,10.0,ESE,4.6,-,N/A,,Overcast,110,2013-04-28 22:53:00
6:53 PM,68.0,66.0,93,29.97,10.0,Calm,Calm,-,0.00,Rain,Light Rain,0,2013-04-28 23:53:00
7:53 PM,66.9,66.0,97,29.97,10.0,SSE,4.6,-,0.00,,Overcast,150,2013-04-29 00:53:00
8:53 PM,66.9,64.9,93,29.99,8.0,Calm,Calm,-,0.01,Rain,Light Rain,0,2013-04-29 01:53:00
9:53 PM,66.0,64.9,96,29.98,4.0,SE,12.7,-,0.01,Rain,Light Rain,140,2013-04-29 02:53:00
10:24 PM,66.2,64.4,94,30.00,10.0,Calm,Calm,-,0.00,Rain,Light Rain,0,2013-04-29 03:24:00
10:53 PM,66.0,64.9,96,29.99,8.0,WSW,3.5,-,0.01,Rain,Light Rain,240,2013-04-29 03:53:00
11:53 PM,64.9,62.1,90,29.99,10.0,Calm,Calm,-,0.01,,Partly Cloudy,0,2013-04-29 04:53:00